GW2905 Weather Reports


time (UTC)temp
C
wind
direction
speed
KPH
gust
KPH
rain 1hr
cm
rain 24hr
cm
rain mn
cm
humidity
%
barometer
mb
20260503213053 30 0 1.6 4.8 0.00 0.00 0.00 31 1009.3
20260503211551 30 316 1.6 4.8 0.00 0.00 0.00 33 1009.4
20260503210055 30 344 1.6 9.7 0.00 0.00 0.00 31 1009.5
20260503204602 30 200 1.6 6.4 0.00 0.00 0.00 29 1009.7
20260503203100 29 0 1.6 6.4 0.00 0.00 0.00 36 1009.9
20260503201554 28 173 1.6 9.7 0.00 0.00 0.00 34 1010.0
20260503200051 28 0 1.6 6.4 0.00 0.00 0.00 35 1010.2
20260503194611 28 59 1.6 8.0 0.00 0.00 0.00 36 1010.3
20260503193054 28 38 1.6 8.0 0.00 0.00 0.00 35 1010.3
20260503191601 27 0 0.0 4.8 0.00 0.00 0.00 41 1010.4
20260503184556 26 190 1.6 4.8 0.00 0.00 0.00 44 1010.7
20260503183104 25 99 1.6 9.7 0.00 0.00 0.00 46 1010.8
20260503181553 24 53 1.6 6.4 0.00 0.00 0.00 46 1011.0
20260503180107 23 84 1.6 4.8 0.00 0.00 0.00 45 1011.0
20260503174551 22 0 0.0 4.8 0.00 0.00 0.00 49 1011.1
20260503173147 21 49 1.6 9.7 0.00 0.00 0.00 53 1011.2
20260503171553 21 54 1.6 6.4 0.00 0.00 0.00 57 1011.1
20260503130104 15 306 1.6 14.5 0.00 0.00 0.00 72 1011.1
20260503100109 15 275 0.0 6.4 0.00 0.00 0.00 74 1011.7
20260503081558 16 119 0.0 4.8 0.00 0.00 0.00 76 1012.0
20260503071558 15 0 0.0 3.2 0.00 0.00 0.00 83 1012.0
20260503054556 17 333 0.0 11.3 0.00 0.00 0.00 73 1011.6
20260503053052 15 26 0.0 3.2 0.00 0.00 0.00 80 1011.5
20260503051555 16 271 0.0 3.2 0.00 0.00 0.00 79 1012.3
20260503050058 16 0 0.0 3.2 0.00 0.00 0.00 79 1012.2
20260503044557 16 0 0.0 3.2 0.00 0.00 0.00 80 1012.1
20260503043049 16 347 0.0 3.2 0.00 0.00 0.00 79 1012.1
20260503041553 16 0 0.0 1.6 0.00 0.00 0.00 79 1012.3
20260503040052 15 5 1.6 4.8 0.00 0.00 0.00 80 1012.2
20260503034552 16 0 0.0 1.6 0.00 0.00 0.00 79 1012.0
20260503033051 16 0 0.0 1.6 0.00 0.00 0.00 78 1011.9
20260503031557 16 0 0.0 3.2 0.00 0.00 0.00 76 1011.9
20260503030051 16 0 0.0 3.2 0.00 0.00 0.00 75 1012.0
20260503024554 17 339 1.6 11.3 0.00 0.00 0.00 74 1012.0
20260503023055 17 108 4.8 19.3 0.00 0.00 0.00 71 1012.0
20260503021549 19 241 3.2 17.7 0.00 0.00 0.00 67 1012.1
20260503020058 20 180 0.0 3.2 0.00 0.00 0.00 66 1011.2
20260503014554 20 0 0.0 3.2 0.00 0.00 0.00 66 1011.1
20260503013051 20 0 0.0 1.6 0.00 0.00 0.00 69 1010.9
20260503011607 20 0 0.0 1.6 0.00 0.00 0.00 67 1010.9
20260503010052 20 0 0.0 3.2 0.00 0.00 0.00 67 1011.0
20260503004614 19 151 0.0 3.2 0.00 0.00 0.00 70 1011.1
20260503003053 20 0 0.0 3.2 0.00 0.00 0.00 68 1011.0
20260503001554 19 0 0.0 3.2 0.00 0.00 0.00 70 1011.1
20260503000108 20 0 0.0 3.2 0.00 0.00 0.00 66 1011.1
20260502234559 20 142 1.6 4.8 0.00 0.00 0.00 64 1011.2
20260502233051 20 0 0.0 3.2 0.00 0.00 0.00 64 1011.6
20260502231615 20 0 0.0 1.6 0.00 0.00 0.00 66 1011.5
20260502230054 20 178 1.6 4.8 0.00 0.00 0.00 61 1011.7
20260502224559 20 315 0.0 3.2 0.00 0.00 0.00 64 1012.0
20260502223057 20 292 0.0 6.4 0.00 0.00 0.00 61 1012.2
20260502221554 20 168 0.0 8.0 0.00 0.00 0.00 65 1012.4
20260502220053 20 26 1.6 4.8 0.00 0.00 0.00 62 1012.6
20260502214552 18 187 1.6 9.7 0.00 0.00 0.00 69 1012.7